Overview Statistics Trail Chart Weather Telemetry Raw packets
 

This is the latest recevied weather packets stored in our database for station/object JS2QVS-13. If no packets are shown the sender has not sent any weather packets the latest 10 day(s).

<< 2 3 4 5 6 7 8 >>
Time Temp. Humidity Pressure Rain* Wind** Luminosity Snow
1788521458 23.89° C 87% 1008.4 hPa 3.05 mm - - -
1788520858 23.89° C 87% 1008.3 hPa 2.29 mm - - -
1788520258 23.33° C 87% 1007.7 hPa 1.78 mm - - -
1788519657 23.33° C 88% 1007.5 hPa 2.03 mm - - -
1788519057 23.33° C 88% 1007 hPa 2.54 mm - - -
1788518457 23.33° C 89% 1006.9 hPa 3.05 mm - - -
1788517857 23.89° C 89% 1007.1 hPa 2.54 mm - - -
1788517257 23.89° C 88% 1007.1 hPa 2.29 mm - - -
1788516657 24.44° C 87% 1007.4 hPa 2.03 mm - - -
1788516057 24.44° C 86% 1007.3 hPa 1.27 mm - - -
1788515457 25° C 85% 1007.6 hPa 0.51 mm - - -
1788514857 24.44° C 86% 1007.5 hPa 0.25 mm - - -
1788514256 24.44° C 86% 1006.5 hPa 0.76 mm - - -
1788513656 24.44° C 87% 1006.1 hPa 1.02 mm - - -
1788513056 24.44° C 87% 1005.8 hPa 1.02 mm - - -
1788512458 24.44° C 88% 1005.3 hPa 1.27 mm - - -
1788511858 24.44° C 87% 1005.4 hPa 1.52 mm - - -
1788511258 24.44° C 87% 1006.2 hPa 1.27 mm - - -
1788510658 24.44° C 86% 1006.9 hPa 0.76 mm - - -
1788510075 25° C 84% 1005.8 hPa 0.51 mm - - -
1788509458 25° C 84% 1005.2 hPa 0.51 mm - - -
1788508857 25.56° C 82% 1005.5 hPa 0.25 mm - - -
1788508257 25.56° C 80% 1005.4 hPa 0 mm - - -
1788507657 25.56° C 79% 1004.7 hPa 0 mm - - -
1788507057 25.56° C 78% 1004.2 hPa 0 mm - - -

* Rain latest hour (hover to see other rain measurements)
** Current wind speed in m/s (hover to see current wind gust speed)